Weather History for Kalaeloa, HI

Change the Weather History Date:

Sunday, May 27, 2012

  Actual Average (PHNL) Record (PHNL)
Temperature  
Mean Temperature 78 °F 79 °F  
Max Temperature 84 °F 86 °F 89 °F (1989)
Min Temperature 72 °F 72 °F 65 °F (1973)
Degree Days  
Heating Degree Days 0 0  
Month to date heating degree days 0  
Since 1 July heating degree days 0  
Cooling Degree Days 13 14  
Month to date cooling degree days 340  
Year to date cooling degree days 1447  
Growing Degree Days 28 (Base 50)    
Moisture  
Dew Point 64 °F    
Average Humidity 66    
Maximum Humidity 81    
Minimum Humidity 44    
Precipitation  
Precipitation 0.00 in 0.01 in 0.41 in (1955)
Month to date precipitation 0.56  
Year to date precipitation 7.51  
Snow  
Snow 0.00 in - - ()
Month to date snowfall  
Since 1 July snowfall  
Snow Depth -    
Sea Level Pressure  
Sea Level Pressure 30.10 in    
Wind  
Wind Speed 7 mph (ENE)    
Max Wind Speed 15 mph    
Max Gust Speed 29 mph    
Visibility 10 miles    
Events      
T = Trace of Precipitation, MM = Missing Value Source: NWS Daily Summary

Daily Weather History Graph

Daily Weather History Graph

Search for Another Location

Airport:

Trip Planner

Search our weather history database for the weather conditions in past years. The results will help you decide how hot, cold, wet, or windy it might be!

Date:

Astronomy

May. 27, 2012 Rise Set
Actual Time 5:50 AM HST 7:08 PM HST
Civil Twilight 5:25 AM HST 7:33 PM HST
Nautical Twilight 4:56 AM HST 8:02 PM HST
Astronomical Twilight 4:27 AM HST 8:32 PM HST
Moon 11:40 AM HST (5/27) No Moon Set
Length of Visible Light 14h 07m
Length of Day
13h 18m
Waxing Crescent, 40% of the Moon is Illuminated
May 27
Waxing Crescent
May 28
First Quarter
Jun 4
Full
Jun 11
Last Quarter
Jun 19
New

Hourly Weather History & Observations

Time (HST) Temp. Heat Index Dew Point Humidity Pressure Visibility Wind Dir Wind Speed Gust Speed Precip Events Conditions
12:25 AM 73.4 °F - 66.2 °F 78% 30.10 in 10.0 mi ENE 6.9 mph - N/A   Mostly Cloudy
12:53 AM 73.0 °F - 66.0 °F 79% 30.11 in 10.0 mi ENE 4.6 mph - N/A   Overcast
1:53 AM 72.0 °F - 66.0 °F 81% 30.09 in 10.0 mi Variable 3.5 mph - N/A   Overcast
2:53 AM 72.0 °F - 64.9 °F 78% 30.07 in 10.0 mi Variable 3.5 mph - N/A   Partly Cloudy
3:53 AM 72.0 °F - 64.9 °F 78% 30.07 in 10.0 mi Calm Calm - N/A   Partly Cloudy
4:53 AM 72.0 °F - 66.0 °F 81% 30.07 in 10.0 mi Calm Calm - N/A   Overcast
5:53 AM 73.0 °F - 64.9 °F 76% 30.09 in 10.0 mi Variable 3.5 mph - N/A   Overcast
6:53 AM 73.9 °F - 64.9 °F 73% 30.11 in 10.0 mi Calm Calm - N/A   Mostly Cloudy
7:53 AM 77.0 °F - 64.0 °F 64% 30.12 in 10.0 mi ENE 9.2 mph 16.1 mph N/A   Partly Cloudy
8:53 AM 78.1 °F - 64.0 °F 62% 30.13 in 10.0 mi East 8.1 mph 20.7 mph N/A   Mostly Cloudy
9:53 AM 79.0 °F - 64.0 °F 60% 30.13 in 10.0 mi ENE 12.7 mph 20.7 mph N/A   Mostly Cloudy
10:53 AM 82.0 °F 83.4 °F 64.0 °F 54% 30.13 in 10.0 mi East 11.5 mph 23.0 mph N/A   Partly Cloudy
11:53 AM 82.9 °F 83.3 °F 61.0 °F 47% 30.12 in 10.0 mi ENE 15.0 mph 27.6 mph N/A   Partly Cloudy
12:53 PM 84.0 °F 84.0 °F 60.1 °F 44% 30.12 in 10.0 mi ENE 13.8 mph 28.8 mph N/A   Clear
1:53 PM 84.0 °F 84.4 °F 61.0 °F 46% 30.10 in 10.0 mi East 11.5 mph 28.8 mph N/A   Clear
2:53 PM 82.9 °F 84.0 °F 63.0 °F 51% 30.09 in 10.0 mi NE 10.4 mph 27.6 mph N/A   Partly Cloudy
3:53 PM 81.0 °F 82.7 °F 64.9 °F 58% 30.08 in 10.0 mi East 12.7 mph 25.3 mph N/A   Partly Cloudy
4:53 PM 79.0 °F - 64.0 °F 60% 30.08 in 10.0 mi ENE 12.7 mph 25.3 mph N/A   Mostly Cloudy
5:53 PM 75.9 °F - 66.0 °F 71% 30.09 in 10.0 mi ENE 12.7 mph 25.3 mph 0.00 in   Overcast
6:53 PM 75.0 °F - 63.0 °F 66% 30.10 in 10.0 mi ENE 10.4 mph 20.7 mph N/A   Mostly Cloudy
7:53 PM 75.0 °F - 64.0 °F 69% 30.11 in 10.0 mi ENE 8.1 mph - N/A   Scattered Clouds
8:53 PM 75.0 °F - 64.0 °F 69% 30.12 in 10.0 mi ENE 8.1 mph 18.4 mph N/A   Mostly Cloudy
9:53 PM 73.9 °F - 64.0 °F 71% 30.13 in 10.0 mi ENE 8.1 mph 17.3 mph N/A   Clear
10:53 PM 73.9 °F - 63.0 °F 68% 30.13 in 10.0 mi ENE 6.9 mph - N/A   Clear
11:53 PM 73.9 °F - 63.0 °F 68% 30.12 in 10.0 mi East 8.1 mph 17.3 mph N/A   Clear